SVA715 HECA-OEJN

Flight info

Callsign SVA715
Flight time 1h 44m
Altitude 35000
Route CVO A727 NABED T55 DEDLI M999 MUVOL
Aircraft A320/M-SDE3FGHIRWY/LB1

Departure

Time 2026-05-07 22:14
Airport Cairo International Airport (HECA)

Arrival

Time 2026-05-07 23:58
Airport King Abdulaziz International Airport (OEJN)
Time Latitude Longitude Altitude Speed Heading
2026-05-07 21:52 30.11087 31.40241 374 ft 0 kts 17°
2026-05-07 22:04 30.11071 31.40235 374 ft 4 kts 18°
2026-05-07 22:04 30.11045 31.40225 374 ft 4 kts 21°
2026-05-07 22:04 30.11021 31.40212 374 ft 4 kts 31°
2026-05-07 22:05 30.11001 31.40194 374 ft 4 kts 70°
2026-05-07 22:05 30.10999 31.40182 374 ft 1 kts 107°
2026-05-07 22:07 30.10998 31.40182 374 ft 0 kts 107°
2026-05-07 22:07 30.10991 31.40214 374 ft 6 kts 104°
2026-05-07 22:07 30.10979 31.40262 374 ft 8 kts 107°
2026-05-07 22:08 30.10959 31.40338 374 ft 10 kts 107°
2026-05-07 22:08 30.10939 31.40411 374 ft 9 kts 110°
2026-05-07 22:08 30.10894 31.40464 374 ft 14 kts 168°
2026-05-07 22:08 30.10823 31.40407 374 ft 12 kts 227°
2026-05-07 22:09 30.10766 31.40334 374 ft 15 kts 228°
2026-05-07 22:09 30.10692 31.40237 374 ft 15 kts 230°
2026-05-07 22:09 30.10626 31.40147 374 ft 14 kts 230°
2026-05-07 22:09 30.10565 31.40069 374 ft 12 kts 227°
2026-05-07 22:10 30.10498 31.39983 374 ft 14 kts 229°
2026-05-07 22:10 30.10436 31.39899 374 ft 13 kts 229°
2026-05-07 22:10 30.10380 31.39825 374 ft 12 kts 229°
2026-05-07 22:10 30.10324 31.39750 374 ft 12 kts 229°
2026-05-07 22:11 30.10274 31.39684 374 ft 10 kts 229°
2026-05-07 22:11 30.10231 31.39626 374 ft 9 kts 228°
2026-05-07 22:11 30.10184 31.39576 374 ft 9 kts 209°
2026-05-07 22:11 30.10131 31.39588 374 ft 9 kts 139°
2026-05-07 22:12 30.10089 31.39635 374 ft 8 kts 139°
2026-05-07 22:12 30.10043 31.39679 374 ft 12 kts 139°
2026-05-07 22:12 30.10002 31.39758 374 ft 11 kts 97°
2026-05-07 22:12 30.10016 31.39852 372 ft 14 kts 78°
2026-05-07 22:13 30.10067 31.39957 370 ft 16 kts 49°
2026-05-07 22:13 30.10075 31.39968 375 ft 0 kts 49°
2026-05-07 22:13 30.10100 31.40000 371 ft 19 kts 49°
2026-05-07 22:13 30.10355 31.40334 376 ft 88 kts 49°
2026-05-07 22:14 30.10883 31.41028 372 ft 140 kts 49°
2026-05-07 22:14 30.11604 31.41978 477 ft 170 kts 47°
2026-05-07 22:14 30.12363 31.43015 1124 ft 165 kts 49°
2026-05-07 22:14 30.13101 31.44028 1784 ft 164 kts 49°
2026-05-07 22:15 30.13864 31.45048 2289 ft 172 kts 48°
2026-05-07 22:15 30.14676 31.46142 2626 ft 190 kts 49°
2026-05-07 22:15 30.15470 31.47393 3100 ft 201 kts 65°
2026-05-07 22:15 30.15596 31.49047 3703 ft 214 kts 100°
2026-05-07 22:16 30.15018 31.50661 4270 ft 224 kts 113°
2026-05-07 22:16 30.14171 31.52220 4826 ft 237 kts 130°
2026-05-07 22:16 30.12777 31.53279 4986 ft 246 kts 163°
2026-05-07 22:16 30.11067 31.53410 5026 ft 248 kts 182°
2026-05-07 22:17 30.09314 31.53323 5177 ft 260 kts 181°
2026-05-07 22:17 30.07478 31.53241 5806 ft 267 kts 182°
2026-05-07 22:17 30.05592 31.53164 6471 ft 275 kts 182°
2026-05-07 22:17 30.03661 31.53089 7211 ft 279 kts 182°
2026-05-07 22:18 30.01711 31.53016 7960 ft 282 kts 183°
2026-05-07 22:18 29.97727 31.52866 9028 ft 288 kts 183°
2026-05-07 22:18 29.95701 31.52790 9236 ft 298 kts 183°
2026-05-07 22:19 29.93590 31.52710 9879 ft 306 kts 184°
2026-05-07 22:19 29.91441 31.52629 10413 ft 318 kts 183°
2026-05-07 22:19 29.89145 31.52540 10592 ft 341 kts 184°
2026-05-07 22:19 29.86691 31.52444 10752 ft 364 kts 183°
2026-05-07 22:20 29.84131 31.52348 11189 ft 374 kts 183°
2026-05-07 22:20 29.81504 31.52252 11810 ft 379 kts 183°
2026-05-07 22:20 29.78857 31.52155 12450 ft 382 kts 183°
2026-05-07 22:20 29.76176 31.52058 13089 ft 386 kts 183°
2026-05-07 22:21 29.73491 31.51961 13727 ft 389 kts 183°
2026-05-07 22:21 29.70768 31.51889 14299 ft 393 kts 179°
2026-05-07 22:21 29.68115 31.52430 14845 ft 398 kts 166°
2026-05-07 22:21 29.65438 31.53282 15432 ft 400 kts 165°
2026-05-07 22:22 29.62753 31.54164 16014 ft 403 kts 165°
2026-05-07 22:22 29.60043 31.55068 16605 ft 406 kts 165°
2026-05-07 22:22 29.57327 31.55973 17182 ft 409 kts 165°
2026-05-07 22:22 29.54588 31.56878 17775 ft 411 kts 165°
2026-05-07 22:23 29.51837 31.57781 18364 ft 414 kts 165°
2026-05-07 22:23 29.49053 31.58690 18865 ft 417 kts 165°
2026-05-07 22:23 29.46249 31.59604 19362 ft 420 kts 165°
2026-05-07 22:23 29.43434 31.60523 19855 ft 423 kts 165°
2026-05-07 22:24 29.40590 31.61453 20343 ft 426 kts 165°
2026-05-07 22:24 29.37749 31.62382 20809 ft 429 kts 165°
2026-05-07 22:24 29.34882 31.63317 21265 ft 432 kts 165°
2026-05-07 22:24 29.31978 31.64263 21721 ft 435 kts 165°
2026-05-07 22:25 29.29052 31.65214 22164 ft 438 kts 165°
2026-05-07 22:25 29.26109 31.66172 22602 ft 441 kts 165°
2026-05-07 22:25 29.23168 31.67131 23026 ft 443 kts 165°
2026-05-07 22:25 29.20198 31.68094 23436 ft 446 kts 165°
2026-05-07 22:26 29.17198 31.69062 23818 ft 448 kts 165°
2026-05-07 22:26 29.14225 31.70022 24139 ft 451 kts 165°
2026-05-07 22:26 29.11219 31.70995 24448 ft 453 kts 165°
2026-05-07 22:26 29.08175 31.71980 24751 ft 456 kts 165°
2026-05-07 22:27 29.05123 31.72968 25053 ft 459 kts 165°
2026-05-07 22:27 29.02049 31.73967 25355 ft 461 kts 165°
2026-05-07 22:27 28.98951 31.74971 25646 ft 464 kts 165°
2026-05-07 22:27 28.95831 31.75977 25930 ft 466 kts 165°
2026-05-07 22:28 28.92705 31.76974 26211 ft 469 kts 165°
2026-05-07 22:28 28.89553 31.77972 26500 ft 471 kts 165°
2026-05-07 22:28 28.86403 31.78969 26775 ft 473 kts 165°
2026-05-07 22:28 28.83224 31.79977 27050 ft 475 kts 165°
2026-05-07 22:29 28.80048 31.80985 27310 ft 477 kts 165°
2026-05-07 22:29 28.77910 31.81665 27492 ft 479 kts 165°
2026-05-07 22:29 28.74713 31.82681 27748 ft 480 kts 165°
2026-05-07 22:29 28.71485 31.83705 27995 ft 482 kts 165°
2026-05-07 22:30 28.68242 31.84735 28252 ft 484 kts 166°
2026-05-07 22:30 28.64994 31.85766 28503 ft 486 kts 166°
2026-05-07 22:30 28.61723 31.86799 28727 ft 487 kts 166°
2026-05-07 22:30 28.58455 31.87829 28951 ft 489 kts 166°
2026-05-07 22:31 28.55173 31.88862 29182 ft 490 kts 166°
2026-05-07 22:31 28.51882 31.89900 29511 ft 489 kts 166°
2026-05-07 22:31 28.48609 31.90933 29834 ft 488 kts 166°
2026-05-07 22:31 28.45339 31.91968 30144 ft 488 kts 166°
2026-05-07 22:32 28.42063 31.93003 30419 ft 487 kts 166°
2026-05-07 22:32 28.38796 31.94033 30699 ft 487 kts 166°
2026-05-07 22:32 28.35530 31.95065 30951 ft 486 kts 166°
2026-05-07 22:32 28.32274 31.96094 31204 ft 486 kts 166°
2026-05-07 22:33 28.29007 31.97121 31460 ft 486 kts 166°
2026-05-07 22:33 28.25754 31.98139 31738 ft 485 kts 166°
2026-05-07 22:33 28.22503 31.99159 32002 ft 484 kts 167°
2026-05-07 22:33 28.19259 32.00176 32266 ft 484 kts 167°
2026-05-07 22:34 28.16032 32.01187 32529 ft 484 kts 167°
2026-05-07 22:34 28.12781 32.02205 32812 ft 483 kts 167°
2026-05-07 22:34 28.09551 32.03218 33080 ft 482 kts 167°
2026-05-07 22:34 28.06319 32.04232 33349 ft 481 kts 167°
2026-05-07 22:35 28.03129 32.05231 33620 ft 481 kts 167°
2026-05-07 22:35 27.99901 32.06249 33904 ft 479 kts 167°
2026-05-07 22:35 27.96693 32.07275 34162 ft 479 kts 167°
2026-05-07 22:35 27.93484 32.08307 34393 ft 478 kts 167°
2026-05-07 22:36 27.90293 32.09334 34627 ft 477 kts 167°
2026-05-07 22:36 27.87091 32.10362 34877 ft 476 kts 168°
2026-05-07 22:36 27.83941 32.11372 35028 ft 476 kts 168°
2026-05-07 22:37 27.77565 32.13413 35075 ft 476 kts 168°
2026-05-07 22:37 27.71227 32.15421 35064 ft 476 kts 168°
2026-05-07 22:38 27.64844 32.17444 35071 ft 476 kts 168°
2026-05-07 22:38 27.58493 32.19467 35063 ft 475 kts 168°
2026-05-07 22:39 27.52132 32.21495 35065 ft 475 kts 168°
2026-05-07 22:39 27.45774 32.23522 35070 ft 475 kts 168°
2026-05-07 22:40 27.39407 32.25540 35062 ft 475 kts 168°
2026-05-07 22:40 27.33074 32.27852 35060 ft 480 kts 158°
2026-05-07 22:41 27.27577 32.32081 35047 ft 488 kts 138°
2026-05-07 22:41 27.23114 32.37936 35048 ft 491 kts 132°
2026-05-07 22:42 27.18766 32.43839 35043 ft 491 kts 132°
2026-05-07 22:42 27.14403 32.49747 35045 ft 490 kts 133°
2026-05-07 22:43 27.05812 32.61398 35031 ft 489 kts 133°
2026-05-07 22:44 27.03152 32.64996 35033 ft 488 kts 133°
2026-05-07 22:44 26.98814 32.70850 35024 ft 488 kts 133°
2026-05-07 22:45 26.94474 32.76711 35024 ft 488 kts 133°
2026-05-07 22:45 26.90149 32.82552 35016 ft 487 kts 133°
2026-05-07 22:46 26.85976 32.88161 35008 ft 486 kts 134°
2026-05-07 22:46 26.81653 32.93952 35003 ft 486 kts 134°
2026-05-07 22:47 26.77314 32.99777 34998 ft 486 kts 134°
2026-05-07 22:47 26.72989 33.05591 34989 ft 485 kts 134°
2026-05-07 22:48 26.68694 33.11346 34988 ft 485 kts 134°
2026-05-07 22:48 26.64356 33.17138 34983 ft 485 kts 134°
2026-05-07 22:49 26.60038 33.22903 34978 ft 484 kts 135°
2026-05-07 22:49 26.55704 33.28685 34976 ft 484 kts 135°
2026-05-07 22:50 26.51379 33.34442 34966 ft 484 kts 135°
2026-05-07 22:50 26.47264 33.39916 34965 ft 483 kts 135°
2026-05-07 22:51 26.42903 33.45701 34963 ft 483 kts 135°
2026-05-07 22:51 26.38584 33.51432 34959 ft 483 kts 135°
2026-05-07 22:52 26.34266 33.57173 34955 ft 483 kts 135°
2026-05-07 22:52 26.29943 33.62912 34965 ft 483 kts 135°
2026-05-07 22:53 26.25612 33.68632 34958 ft 482 kts 136°
2026-05-07 22:53 26.21276 33.74344 34951 ft 482 kts 135°
2026-05-07 22:54 26.16964 33.80036 34943 ft 482 kts 136°
2026-05-07 22:54 26.12639 33.85736 34940 ft 482 kts 136°
2026-05-07 22:55 26.08307 33.91430 34932 ft 482 kts 136°
2026-05-07 22:55 26.03977 33.97116 34929 ft 482 kts 136°
2026-05-07 22:56 25.99642 34.02812 34928 ft 482 kts 136°
2026-05-07 22:56 25.95327 34.08474 34933 ft 481 kts 136°
2026-05-07 22:57 25.90985 34.14158 34928 ft 482 kts 136°
2026-05-07 22:57 25.86647 34.19828 34931 ft 482 kts 136°
2026-05-07 22:58 25.82305 34.25495 34927 ft 482 kts 136°
2026-05-07 22:58 25.77956 34.31160 34929 ft 482 kts 136°
2026-05-07 22:59 25.73618 34.36814 34933 ft 482 kts 136°
2026-05-07 22:59 25.69274 34.42471 34936 ft 482 kts 137°
2026-05-07 23:00 25.64917 34.48137 34938 ft 483 kts 137°
2026-05-07 23:00 25.60555 34.53801 34943 ft 482 kts 137°
2026-05-07 23:01 25.56119 34.59355 34939 ft 479 kts 140°
2026-05-07 23:01 25.51412 34.64520 34940 ft 476 kts 143°
2026-05-07 23:02 25.47421 34.68703 34938 ft 476 kts 143°
2026-05-07 23:02 25.42646 34.73805 34932 ft 477 kts 142°
2026-05-07 23:03 25.37935 34.78974 34923 ft 477 kts 142°
2026-05-07 23:03 25.33223 34.84164 34931 ft 477 kts 142°
2026-05-07 23:04 25.28525 34.89290 34940 ft 477 kts 142°
2026-05-07 23:04 25.23749 34.94476 34944 ft 477 kts 142°
2026-05-07 23:05 25.19016 34.99625 34947 ft 478 kts 142°
2026-05-07 23:05 25.14284 35.04778 34937 ft 478 kts 142°
2026-05-07 23:06 25.09540 35.09928 34940 ft 478 kts 142°
2026-05-07 23:06 25.04787 35.15070 34937 ft 478 kts 142°
2026-05-07 23:07 25.00043 35.20211 34933 ft 479 kts 142°
2026-05-07 23:07 24.95294 35.25357 34934 ft 479 kts 142°
2026-05-07 23:08 24.90532 35.30513 34933 ft 479 kts 142°
2026-05-07 23:08 24.85780 35.35651 34935 ft 479 kts 142°
2026-05-07 23:09 24.81019 35.40789 34938 ft 479 kts 142°
2026-05-07 23:09 24.76262 35.45927 34935 ft 479 kts 142°
2026-05-07 23:10 24.71510 35.51053 34941 ft 479 kts 142°
2026-05-07 23:10 24.66742 35.56193 34924 ft 480 kts 142°
2026-05-07 23:11 24.61961 35.61324 34929 ft 480 kts 142°
2026-05-07 23:11 24.57190 35.66443 34932 ft 480 kts 142°
2026-05-07 23:12 24.52413 35.71566 34936 ft 480 kts 142°
2026-05-07 23:12 24.47618 35.76695 34933 ft 481 kts 142°
2026-05-07 23:13 24.42831 35.81818 34938 ft 481 kts 142°
2026-05-07 23:13 24.38043 35.86944 34937 ft 482 kts 142°
2026-05-07 23:14 24.33250 35.92062 34939 ft 482 kts 142°
2026-05-07 23:14 24.28470 35.97150 34938 ft 482 kts 142°
2026-05-07 23:15 24.23666 36.02272 34935 ft 482 kts 142°
2026-05-07 23:15 24.18885 36.07363 34935 ft 482 kts 142°
2026-05-07 23:16 24.14043 36.12518 34934 ft 482 kts 142°
2026-05-07 23:16 24.09231 36.17630 34929 ft 482 kts 143°
2026-05-07 23:17 24.04416 36.22735 34928 ft 482 kts 143°
2026-05-07 23:17 23.99593 36.27845 34928 ft 482 kts 143°
2026-05-07 23:18 23.94771 36.32943 34929 ft 482 kts 143°
2026-05-07 23:18 23.89952 36.38041 34926 ft 482 kts 143°
2026-05-07 23:19 23.85133 36.43127 34926 ft 481 kts 143°
2026-05-07 23:19 23.80286 36.48240 34922 ft 481 kts 143°
2026-05-07 23:20 23.75500 36.53284 34924 ft 481 kts 143°
2026-05-07 23:20 23.70652 36.58391 34918 ft 481 kts 143°
2026-05-07 23:21 23.65827 36.63453 34916 ft 481 kts 143°
2026-05-07 23:21 23.61040 36.68481 34911 ft 481 kts 143°
2026-05-07 23:22 23.56201 36.73572 34910 ft 480 kts 143°
2026-05-07 23:22 23.51389 36.78617 34908 ft 480 kts 143°
2026-05-07 23:23 23.46606 36.83619 34911 ft 479 kts 143°
2026-05-07 23:23 23.41792 36.88644 34907 ft 479 kts 144°
2026-05-07 23:24 23.36959 36.93695 34906 ft 478 kts 143°
2026-05-07 23:24 23.32161 36.98709 34907 ft 478 kts 144°
2026-05-07 23:25 23.27354 37.03704 34905 ft 477 kts 144°
2026-05-07 23:25 23.22561 37.08686 34903 ft 477 kts 144°
2026-05-07 23:26 23.17776 37.13673 34902 ft 476 kts 144°
2026-05-07 23:26 23.12988 37.18659 34901 ft 476 kts 144°
2026-05-07 23:27 23.05819 37.26096 34901 ft 475 kts 144°
2026-05-07 23:27 23.01048 37.31046 34897 ft 474 kts 144°
2026-05-07 23:28 22.96286 37.35986 34918 ft 472 kts 145°
2026-05-07 23:28 22.91593 37.40860 34866 ft 465 kts 145°
2026-05-07 23:29 22.86903 37.45693 34869 ft 465 kts 145°
2026-05-07 23:29 22.82211 37.50513 34877 ft 465 kts 145°
2026-05-07 23:30 22.77531 37.55338 34884 ft 464 kts 145°
2026-05-07 23:30 22.72861 37.60147 34886 ft 462 kts 145°
2026-05-07 23:31 22.68642 37.65605 34887 ft 476 kts 134°
2026-05-07 23:31 22.64832 37.71443 34880 ft 475 kts 134°
2026-05-07 23:32 22.61009 37.77270 34883 ft 474 kts 134°
2026-05-07 23:32 22.59105 37.80170 34638 ft 471 kts 134°
2026-05-07 23:32 22.57229 37.83025 33932 ft 471 kts 134°
2026-05-07 23:33 22.55323 37.85919 33041 ft 473 kts 133°
2026-05-07 23:33 22.53382 37.88863 32151 ft 476 kts 133°
2026-05-07 23:33 22.51464 37.91777 31476 ft 474 kts 132°
2026-05-07 23:33 22.49551 37.94683 30782 ft 474 kts 131°
2026-05-07 23:34 22.47638 37.97588 30126 ft 473 kts 130°
2026-05-07 23:34 22.45735 38.00479 29425 ft 472 kts 130°
2026-05-07 23:34 22.43865 38.03317 28772 ft 470 kts 130°
2026-05-07 23:34 22.41939 38.06237 28172 ft 466 kts 130°
2026-05-07 23:35 22.40694 38.08126 27796 ft 464 kts 130°
2026-05-07 23:35 22.38832 38.10951 27243 ft 460 kts 130°
2026-05-07 23:35 22.36977 38.13758 26693 ft 457 kts 130°
2026-05-07 23:35 22.35141 38.16534 26166 ft 453 kts 130°
2026-05-07 23:36 22.33312 38.19297 25630 ft 450 kts 130°
2026-05-07 23:36 22.31498 38.22034 25124 ft 447 kts 130°
2026-05-07 23:36 22.29695 38.24760 24625 ft 444 kts 129°
2026-05-07 23:36 22.27909 38.27459 24146 ft 441 kts 129°
2026-05-07 23:37 22.26130 38.30142 23667 ft 439 kts 129°
2026-05-07 23:37 22.24354 38.32818 23161 ft 436 kts 129°
2026-05-07 23:37 22.22597 38.35467 22665 ft 432 kts 129°
2026-05-07 23:37 22.20855 38.38092 22233 ft 428 kts 130°
2026-05-07 23:38 22.19101 38.40666 21810 ft 422 kts 131°
2026-05-07 23:38 22.17328 38.43165 21390 ft 417 kts 132°
2026-05-07 23:38 22.15548 38.45615 20971 ft 412 kts 133°
2026-05-07 23:38 22.13778 38.48027 20556 ft 408 kts 133°
2026-05-07 23:39 22.12025 38.50415 20156 ft 403 kts 133°
2026-05-07 23:39 22.10300 38.52780 19761 ft 399 kts 132°
2026-05-07 23:39 22.08583 38.55152 19369 ft 394 kts 132°
2026-05-07 23:39 22.06906 38.57481 18966 ft 390 kts 132°
2026-05-07 23:40 22.05255 38.59779 18586 ft 386 kts 132°
2026-05-07 23:40 22.03621 38.62055 18227 ft 382 kts 132°
2026-05-07 23:40 22.02007 38.64305 17816 ft 377 kts 132°
2026-05-07 23:40 22.00424 38.66517 17378 ft 374 kts 131°
2026-05-07 23:41 21.99137 38.68316 17012 ft 371 kts 131°
2026-05-07 23:41 21.97543 38.70547 16570 ft 368 kts 131°
2026-05-07 23:41 21.95983 38.72730 16136 ft 365 kts 131°
2026-05-07 23:41 21.94443 38.74888 15719 ft 363 kts 131°
2026-05-07 23:42 21.92905 38.77037 15314 ft 360 kts 131°
2026-05-07 23:42 21.91385 38.79157 14912 ft 357 kts 131°
2026-05-07 23:42 21.89881 38.81256 14514 ft 355 kts 130°
2026-05-07 23:42 21.88370 38.83361 14118 ft 353 kts 130°
2026-05-07 23:43 21.86871 38.85448 13731 ft 350 kts 130°
2026-05-07 23:43 21.85390 38.87515 13320 ft 348 kts 130°
2026-05-07 23:43 21.84475 38.88791 13053 ft 346 kts 130°
2026-05-07 23:43 21.83009 38.90836 12818 ft 344 kts 130°
2026-05-07 23:44 21.81580 38.92827 12753 ft 330 kts 130°
2026-05-07 23:44 21.80199 38.94751 12632 ft 319 kts 130°
2026-05-07 23:44 21.78857 38.96602 12466 ft 309 kts 133°
2026-05-07 23:44 21.77299 38.98140 12180 ft 301 kts 148°
2026-05-07 23:45 21.75458 38.99163 11835 ft 296 kts 162°
2026-05-07 23:45 21.73525 38.99916 11480 ft 295 kts 162°
2026-05-07 23:45 21.71608 39.00678 11147 ft 294 kts 161°
2026-05-07 23:45 21.69697 39.01447 10804 ft 292 kts 161°
2026-05-07 23:46 21.67799 39.02214 10451 ft 291 kts 160°
2026-05-07 23:46 21.65913 39.02969 10248 ft 284 kts 161°
2026-05-07 23:46 21.64069 39.03698 9890 ft 279 kts 161°
2026-05-07 23:46 21.62274 39.04395 9499 ft 269 kts 161°
2026-05-07 23:47 21.60541 39.05058 9109 ft 260 kts 161°
2026-05-07 23:47 21.58844 39.05705 8813 ft 257 kts 161°
2026-05-07 23:47 21.57169 39.06344 8520 ft 254 kts 161°
2026-05-07 23:47 21.55509 39.06976 8191 ft 252 kts 161°
2026-05-07 23:48 21.53926 39.07580 7869 ft 251 kts 161°
2026-05-07 23:48 21.52211 39.08233 7514 ft 249 kts 161°
2026-05-07 23:48 21.50578 39.08855 7163 ft 248 kts 161°
2026-05-07 23:48 21.48955 39.09472 6834 ft 247 kts 161°
2026-05-07 23:49 21.47341 39.10083 6511 ft 245 kts 161°
2026-05-07 23:49 21.45732 39.10690 6171 ft 244 kts 161°
2026-05-07 23:49 21.44131 39.11292 5814 ft 244 kts 161°
2026-05-07 23:49 21.42528 39.11896 5435 ft 244 kts 161°
2026-05-07 23:50 21.40947 39.12499 5203 ft 238 kts 161°
2026-05-07 23:50 21.39408 39.13119 5039 ft 235 kts 153°
2026-05-07 23:50 21.38204 39.14275 4997 ft 236 kts 120°
2026-05-07 23:50 21.37761 39.15945 5000 ft 236 kts 89°
2026-05-07 23:51 21.38010 39.17683 4999 ft 237 kts 72°
2026-05-07 23:51 21.38614 39.19319 5005 ft 237 kts 65°
2026-05-07 23:51 21.39372 39.20874 4858 ft 234 kts 53°
2026-05-07 23:51 21.40508 39.22099 4550 ft 231 kts 33°
2026-05-07 23:52 21.41946 39.22835 4274 ft 227 kts 13°
2026-05-07 23:52 21.43462 39.23012 4146 ft 215 kts 355°
2026-05-07 23:52 21.44878 39.22699 4035 ft 204 kts 339°
2026-05-07 23:52 21.46191 39.22181 3861 ft 199 kts 339°
2026-05-07 23:53 21.47484 39.21672 3698 ft 195 kts 339°
2026-05-07 23:53 21.48723 39.21185 3646 ft 183 kts 340°
2026-05-07 23:53 21.49902 39.20721 3436 ft 178 kts 340°
2026-05-07 23:53 21.51051 39.20268 3217 ft 173 kts 340°
2026-05-07 23:54 21.52169 39.19828 3005 ft 170 kts 340°
2026-05-07 23:54 21.53280 39.19390 2776 ft 165 kts 341°
2026-05-07 23:54 21.54296 39.18990 2591 ft 151 kts 341°
2026-05-07 23:54 21.55257 39.18612 2420 ft 144 kts 342°
2026-05-07 23:55 21.56183 39.18247 2256 ft 141 kts 343°
2026-05-07 23:55 21.57101 39.17885 2059 ft 140 kts 343°
2026-05-07 23:55 21.58024 39.17522 1875 ft 139 kts 342°
2026-05-07 23:55 21.58927 39.17166 1694 ft 139 kts 343°
2026-05-07 23:56 21.59821 39.16814 1527 ft 138 kts 343°
2026-05-07 23:56 21.60735 39.16453 1339 ft 139 kts 343°
2026-05-07 23:56 21.61632 39.16100 1155 ft 138 kts 343°
2026-05-07 23:56 21.62538 39.15743 985 ft 137 kts 341°
2026-05-07 23:57 21.63440 39.15390 781 ft 139 kts 340°
2026-05-07 23:57 21.64336 39.15042 632 ft 136 kts 340°
2026-05-07 23:57 21.65219 39.14683 458 ft 135 kts 339°
2026-05-07 23:57 21.66098 39.14326 282 ft 136 kts 339°
2026-05-07 23:58 21.66988 39.13975 100 ft 136 kts 339°
2026-05-07 23:58 21.67839 39.13655 32 ft 117 kts 340°
2026-05-07 23:58 21.68452 39.13400 27 ft 70 kts 340°
2026-05-07 23:58 21.68749 39.13286 27 ft 23 kts 340°
2026-05-07 23:59 21.68900 39.13231 28 ft 23 kts 345°
2026-05-07 23:59 21.69054 39.13192 28 ft 23 kts 350°
2026-05-07 23:59 21.69190 39.13200 28 ft 11 kts 11°
2026-05-07 23:59 21.69235 39.13210 29 ft 6 kts 12°
2026-05-08 00:00 21.69267 39.13218 30 ft 4 kts 13°
2026-05-08 00:00 21.69300 39.13251 31 ft 8 kts 67°
2026-05-08 00:00 21.69286 39.13295 30 ft 8 kts 148°
2026-05-08 00:00 21.69212 39.13324 32 ft 11 kts 158°
2026-05-08 00:01 21.69144 39.13354 32 ft 10 kts 157°
2026-05-08 00:01 21.69082 39.13379 32 ft 9 kts 161°
2026-05-08 00:01 21.69024 39.13402 32 ft 8 kts 160°
2026-05-08 00:01 21.68963 39.13425 32 ft 10 kts 160°
2026-05-08 00:02 21.68903 39.13449 32 ft 9 kts 160°
2026-05-08 00:02 21.68818 39.13483 32 ft 14 kts 159°
2026-05-08 00:02 21.68723 39.13521 32 ft 19 kts 160°
2026-05-08 00:02 21.68594 39.13575 31 ft 19 kts 157°
2026-05-08 00:03 21.68475 39.13623 31 ft 17 kts 160°
2026-05-08 00:03 21.68373 39.13663 31 ft 12 kts 159°
2026-05-08 00:03 21.68330 39.13720 32 ft 9 kts 77°
2026-05-08 00:03 21.68356 39.13803 31 ft 16 kts 70°
2026-05-08 00:04 21.68395 39.13917 33 ft 18 kts 70°
2026-05-08 00:04 21.68446 39.14063 32 ft 23 kts 69°
2026-05-08 00:04 21.68504 39.14231 33 ft 25 kts 70°
2026-05-08 00:04 21.68569 39.14413 33 ft 27 kts 70°
2026-05-08 00:05 21.68635 39.14605 32 ft 28 kts 70°
2026-05-08 00:05 21.68703 39.14808 33 ft 30 kts 70°
2026-05-08 00:05 21.68763 39.14988 33 ft 24 kts 70°
2026-05-08 00:05 21.68821 39.15163 33 ft 25 kts 72°
2026-05-08 00:06 21.68847 39.15248 31 ft 5 kts 71°
2026-05-08 00:06 21.68861 39.15290 31 ft 11 kts 70°
2026-05-08 00:06 21.68904 39.15415 32 ft 22 kts 69°
2026-05-08 00:06 21.68955 39.15553 33 ft 18 kts 68°
2026-05-08 00:07 21.68970 39.15654 33 ft 13 kts 111°
2026-05-08 00:07 21.68897 39.15701 33 ft 15 kts 160°
2026-05-08 00:07 21.68714 39.15770 33 ft 33 kts 162°
2026-05-08 00:07 21.68567 39.15822 33 ft 34 kts 161°
2026-05-08 00:08 21.68341 39.15910 33 ft 35 kts 159°
2026-05-08 00:08 21.68026 39.16038 33 ft 37 kts 159°
2026-05-08 00:08 21.67864 39.16102 33 ft 38 kts 160°
2026-05-08 00:08 21.67525 39.16233 33 ft 39 kts 160°
2026-05-08 00:09 21.67354 39.16301 32 ft 40 kts 160°
2026-05-08 00:09 21.67099 39.16402 34 ft 33 kts 160°
2026-05-08 00:09 21.66913 39.16478 34 ft 29 kts 160°
2026-05-08 00:09 21.66752 39.16542 34 ft 21 kts 158°
2026-05-08 00:10 21.66658 39.16589 34 ft 12 kts 144°
2026-05-08 00:10 21.66649 39.16668 33 ft 10 kts 57°
2026-05-08 00:10 21.66677 39.16749 34 ft 16 kts 72°
2026-05-08 00:10 21.66705 39.16872 33 ft 15 kts 85°
2026-05-08 00:11 21.66684 39.16934 33 ft 8 kts 138°
2026-05-08 00:11 21.66624 39.16960 33 ft 9 kts 162°
2026-05-08 00:11 21.66595 39.17006 33 ft 8 kts 78°
2026-05-08 00:11 21.66615 39.17053 33 ft 6 kts 65°
2026-05-08 00:12 21.66617 39.17057 33 ft 0 kts 65°